リニア-ニート彗星

C/2001 HT50 ( LINEAR-NEAT )

English version
Home page
Updated on September 3, 2006

---------------------------------------------------------------------

・ プロフィール

発見日 2001年4月23日、26日、5月14日
発見光度 18.4, 18.5, 18.3等
発見者 LINEAR, LONEOS, NEAT

・ 写真集

・ 軌道要素

Epoch 2003 July 20.0 TT = JDT 2452840.5
T 2003 July  9.00761 TT                                 MPC
q   2.7920926            (2000.0)            P               Q
z  +0.0008401      Peri.  324.06713     +0.21047303     +0.95761410
 +/-0.0000012      Node    42.91333     +0.95076809     -0.24731943
e   0.9976544      Incl.  163.21197     +0.22746678     +0.14767645
>From 542 observations 2001 Mar. 3-2003 Jan. 6, mean residual 0".64.

・ 星図

・ 光度変化

        m1 = 4.0 + 5 logΔ + 11.8 log r

---------------------------------------------------------------------

軌道要素はM.P.E.C. 2003-A28に掲載されたものです。
星図は StellaNavigator Ver.2.0 for Windows (アストロアーツ 編著 / アスキー出版局刊) で作成したものです。
光度グラフはComet for Windowsで作成したものです。

---------------------------------------------------------------------

Copyright(C) Seiichi Yoshida (comet@aerith.net). All rights reserved.